FREGAT DEB, 45847

Orbit data source: Space-Track

FREGAT DEB, 45847 is space debris in LEO originally from a launch on Mon, 18 Jul 2011 UTC launched from the Tyuratam Missile And Space Complex (TTMTR). Debris objects in space refer to the collection of defunct objects orbiting the Earth. Examples of debris include non-operational satellites, rocket bodies, and fragments generated from explosions, collisions, or faulty payload assembly.

Loading next visibility...
Identifier
45847, 2011-037CH
Orbit
LEO
Country
Flag of CISCIS
Related business
Manufacturer
Lavochkin
Mission
Spacecraft
Bus & Motor
Unknown
Mass
Unknown
Launch date (UTC)
2011-07-18 (15 years ago)
Launch vehicle
Unknown
Launch site
Tyuratam Missile And Space Complex (TTMTR)
Object type
Payload
Rocket body
Debris
Shape & HBR
Unknown shape, 0.1 m
Radar Cross Section
Small (<0.1 m²)

Expand to show TLE details & history
Last TLE update: 1 day ago

TLE from 1 day ago
0 FREGAT DEB
1 45847U 11037CH  26127.02175327  .00101648  00000-0  56639-2 0  9996
2 45847  51.4010  36.1053 0884753 344.6403  12.9157 13.66781150256565
Epoch: 2026-05-07T00:31Z
TLE epoch observation values (Epoch: 2026-05-07T00:31:19.482Z)
Latitude
0.00002°
Longitude
163.40028°
Altitude
377.931 km
Speed
8.006 km/s
True Right ascension
02h 24m 25s
True Declination
0° 00' 00"
Sunlit
Object was in daylight at epoch
Visualization orbit readout
Latitude
Unknown
Longitude
Unknown
Altitude
Unknown
Speed
Unknown
Apparent Right ascension
Unknown
Apparent Declination
Unknown
Sunlit
N/A
Visualization observer readout
Local Sidereal Time
10:45:19
Azimuth
Unknown
Elevation
Unknown
Doppler factor
Unknown
Orbital elements
Apogee altitude
1,665.474 km
Perigee altitude
357.845 km
Semi-major axis
7,389.797 km
Eccentricity
0.08848
Inclination
51.401°
RAAN
36.1053°
Arg. of periapsis
344.6403°
True anomaly
15.45327°
Mean anomaly
12.9157°
Eccentric anomaly
14.1554°
Mean motion
3.4166 °/min
Orbital period
105.37 mins
BSTAR
0.0056639
Loading maneuver chart data...
Computing Atmospheric mass density...

Documentation

Showing up to 5 results
|